Regional Weather Roundup
Issued by NWS

Home | Current Version | Previous Version | Text Only | Print | Product List | Glossary On
Versions: 1 2 3 4 5 6 7 8 9 10 11 12 13 14 15 16 17 18 19 20 21 22 23 24 25 26 27 28 29 30 31 32 33 34 35 36 37 38 39 40 41 42 43 44 45 46 47 48 49 50
986
ASUS44 KLIX 260905
RWRLA
LOUISIANA WEATHER ROUNDUP
NATIONAL WEATHER SERVICE NEW ORLEANS LA
300 AM CST WED NOV 26 2014

NOTE: "FAIR" INDICATES FEW OR NO CLOUDS BELOW 12,000 FEET WITH NO
      SIGNIFICANT WEATHER AND/OR OBSTRUCTIONS TO VISIBILITY.
      SKY/WX - SKY CONDITION AND SIGNIFICANT WEATHER.
      TMP - AIR TEMPERATURE.    DP   - DEWPOINT TEMPERATURE.
      RH  - RELATIVE HUMIDITY.  PRES - PRESSURE.
      HX  - HEAT INDEX.         WCI  - WIND CHILL INDEX.

*  THESE STATIONS ARE NOT NWS OR FAA STATIONS AND ARE NOT UNDER
   NWS QUALITY CONTROL.

LAZ040-048-061>063-065-066-069-261000-
SOUTHEAST LOUISIANA

CITY           SKY/WX    TMP DP  RH WIND       PRES   REMARKS
N.O. AUDUBON     N/A     44  36  74 MISG        N/A
N.O. INTL ARPT CLEAR     40  34  79 W3        30.21S
N.O. LAKEFRONT CLEAR     48  36  63 N9        30.21F
N.O. DOWNTOWN* FAIR      46  34  61 N5        30.21S
SLIDELL        CLEAR     33  29  85 CALM      30.20F
BATON ROUGE    CLEAR     34  31  88 CALM      30.20F
BOOTHVILLE     CLEAR     49  34  56 N12G17    30.21S
BELLE CHASSE   CLEAR     36  32  85 S3        30.21S
BOGALUSA*        N/A     32  30  92 CALM      30.22S
NEW ROADS*     FOG       34  33  98 CALM      30.21R VSB 3/4
GONZALES*      FAIR      33  33 100 CALM      30.20F
HAMMOND*       CLEAR     32  30  93 CALM      30.22F
HOUMA*         CLEAR     35  34  97 CALM      30.22S
PORT FOURCHON* NOT AVBL

$$

LAZ041-044-053-054-261000-
SOUTHWEST LOUISIANA

CITY           SKY/WX    TMP DP  RH WIND       PRES   REMARKS
LAKE CHARLES   CLEAR     38  37  97 S3        30.20F
LAFAYETTE      CLEAR     40  35  83 S3        30.21F
PATTERSON      CLEAR     36  34  93 CALM      30.24R
SALT POINT       N/A     46  37  71 CALM      30.22S
NEW IBERIA     CLEAR     35  33  92 CALM      30.22F
CHENAULT AIRPK CLEAR     38  37  97 CALM      30.21S

$$

LAZ027-028-261000-
CENTRAL LOUISIANA

CITY           SKY/WX    TMP DP  RH WIND       PRES   REMARKS
FORT POLK      CLEAR     42  35  75 SW3       30.18S
ALEXANDRIA INT MOCLDY    37  35  92 SE3       30.17S
ALEXANDRIA     MOCLDY    35  33  92 CALM      30.18F

$$

LAZ001-002-261000-
NORTHWEST LOUISIANA

CITY           SKY/WX    TMP DP  RH WIND       PRES   REMARKS
SHREVEPORT     PTCLDY    44  34  67 SW8       30.14R
BARKSDALE AFB  PTCLDY    38  33  81 SE2       30.14S
DTN SHREVEPORT PTCLDY    45  32  60 SW9       30.14S

$$

LAZ014-016-261000-
NORTHEAST LOUISIANA

CITY           SKY/WX    TMP DP  RH WIND       PRES   REMARKS
MONROE         PTCLDY    36  34  92 CALM      30.19R
TALLULAH       PTCLDY    30  28  92 CALM      30.19R

$$




USA.gov is the U.S. government's official web portal to all federal, state and local government web resources and services.